STARLINK-4012 (52602 NORAD) Tracking and Keplerian Element Data

This shows tracking and keplerian element data for the satellite.

Feedback or suggestion? Click here.




ElementValue
Catalog52602
NameSTARLINK-4012
Epoch Orbit130
Epoch Day228.91667824
Epoch Year2022
RAAN358.5165
Inclination53.2167
Eccentricity0.0001629
Argument of Perigee49.084
Mean Anonmoly4.3635
Mean Motion15.08848362
Decay Rate-0.00017121
L11 52602U 22052E 22228.91667824 -.00017121 00000+0 -10599-2 0 9994
L22 52602 53.2167 358.5165 0001629 49.0840 4.3635 15.08848362 1307

Live tracking and technical data element details for STARLINK-4012 (NORAD 52602). STARLINK-4012 can be tracked NOW for your location showing map with azimuth and elevation plus other details from your city location.

Track the satellite on the map from your city or location and see movement details for azimuth, elevation, latitude, longitude, range, height, and movement on the map or in text.







IsCatalogInMostPopularTable: catalog: 52602, numindb: 7
Update: records affected: 1



GetName: 52602 STARLINK-4012

Hit Count: updated at: Thu, 18 Aug 2022 20:10:50 GMT